Starlink 1865

decayed
NORAD ID: 46741 Int'l Des: 2020-074 Owner: SPXS Country: US Constellation: starlink
LEOCIRCULAR
Group

About Starlink 1865

Description loading...

Altitude History

Altitude vs Time

uPlot chart will show altitude changes over time

Two-Line Element Set

1 46741U 20074C 25057.68475494 .05306704 12120-4 12153-2 0 9990
2 46741 53.0290 159.8244 0009253 329.5751 186.1768 16.29133420240641
Epoch: Feb 26, 2025 • Age: 6963 hours

Current Status

Position data unavailable
Launch Date Oct 24, 2020
Age 5.1 years
Decay Date Feb 27, 2025
Type internet

Technical Details

Classification Payload
Mass 260.00 kg
Dry Mass 248.00 kg
Total Mass 260.00 kg
Length 0.20 m
Diameter 2.80 m
Span 9.00 m
Shape Box + pan
Manufacturer SPXS
Bus Type Starlink
Phase Status Unknown Transfer Status
Owner/State SPXS/US

Large Constellations

Loading constellations...